Tracking 31027 objects as of 19-Jul-2025
HD Live streaming from Space Station
objects crossing your sky now

COSMOS 1771 FUEL CORE

Track COSMOS 1771 FUEL CORE now!
10-day predictions


NORAD ID: 17035
Int'l Code: 1986-062C
Perigee: 919.7 km
Apogee: 976.8 km
Inclination: 65.0 °
Period: 103.9 minutes
Semi major axis: 7319 km
RCS: 0.1808 m2 (medium)
Launch date: August 20, 1986
Source: Commonwealth of Independent States (former USSR) (CIS)
Launch site: TYURATAM MISSILE AND SPACE COMPLEX (TTMTR)

Note: This is SATELLITE DEBRIS
Your satellite tracking list
FENGYUN 1C DEB
Track 1 satellite(s)




NASA's NSSDC Master Catalog

Two Line Element Set (TLE):
1 17035U 86062C   25199.47530366 -.00000086  00000-0  29260-5 0  9997
2 17035  64.9927 263.8425 0038990 345.6323  38.0104 13.86442840962351
Source of the keplerian elements: AFSPC